Weather in Gulsehir

Turkey     38°44′25″N   34°36′58″E
temp.,
°C
wind,
m/s
gust,
m/s
humid.,
%
clouds,
%
prec.,
mm/h
press.,
hPa
HPBL,
m
13 august, sat
sat1300:00+20ne12520 0.0 100932
03:00+18nnw01660 0.0 100911
06:00+16nw11800 0.0 101011
09:00+22nne12550 0.0 1009566
12:00+29nne43270 0.0 10072229
15:00+32n42200 0.0 10042817
18:00+31n32190 0.0 10032821
21:00+25nne33290 0.0 100425
14 august, sun
sun1400:00+21e11390 0.0 100514
03:00+19nne11570 0.0 100511
06:00+17nw11720 0.0 100611
09:00+24ne12480 0.0 1005460
12:00+31ne23230 0.0 10031809
15:00+34n22163 0.0 10013670
18:00+34n331684 0.0 10003728
21:00+28nne232390 0.0 100152
15 august, mon
mon1500:00+23ne11350 0.0 100211
03:00+22se12412 0.0 100211
06:00+21se22530 0.0 100316
09:00+27sw46360 0.0 1004926
12:00+32sw55270 0.0 10032072
15:00+34wsw56200 0.0 10013191
18:00+33w661754 0.0 10022339
21:00+24n01350 0.0 100411
16 august, tue
tue1600:00+23sw34330 0.0 100656
03:00+20wsw22520 0.0 100911
06:00+19ssw11570 0.0 101011
09:00+25nw11390 0.0 1010555
12:00+30nw21260 0.0 10081818
15:00+33nw22190 0.0 10072863
18:00+33nnw43180 0.0 10062532
21:00+25nw33270 0.0 100827
17 august, wed
wed1700:00+22w22340 0.0 100913
03:00+21nw22420 0.0 100912
06:00+18nnw11640 0.0 100911
09:00+25nne23540 0.0 1008605
12:00+32n43270 0.0 10061995
15:00+34nnw33206 0.0 10043855
18:00+32nnw762034 0.0 10031058
21:00+28nne5103022 0.0 1005448